GW6581 Weather Reports


time (UTC)temp
F
wind
direction
speed
knots
gust
knots
rain 1hr
in
rain 24hr
in
rain mn
in
humidity
%
barometer
mb
20260504141043 64 105 6.1 9.6 0.00 0.00 0.00 81 1013.0
20260504140542 64 105 6.1 9.6 0.00 0.00 0.00 79 1013.0
20260504050542 60 51 0.0 1.7 0.00 0.00 0.00 83 1014.0
20260504045542 60 356 0.9 2.6 0.00 0.00 0.00 83 1014.0
20260504045042 60 104 0.9 2.6 0.00 0.00 0.00 83 1014.0
20260504044544 60 8 1.7 2.6 0.00 0.00 0.00 83 1014.0
20260504044042 60 43 0.9 1.7 0.00 0.00 0.00 83 1014.0
20260504043542 60 333 0.0 1.7 0.00 0.00 0.00 83 1014.0
20260504043042 60 343 1.7 2.6 0.00 0.00 0.00 83 1014.0
20260504042542 60 39 0.0 1.7 0.00 0.00 0.00 83 1014.0
20260504042043 60 340 0.9 1.7 0.00 0.00 0.00 83 1014.0
20260504041542 60 61 0.0 2.6 0.00 0.00 0.00 83 1014.0
20260504041042 60 16 1.7 2.6 0.00 0.00 0.00 83 1014.0
20260504040543 60 53 1.7 2.6 0.00 0.00 0.00 83 1014.0
20260504040043 60 1 0.9 3.5 0.00 0.00 0.00 83 1014.0
20260504035543 60 335 1.7 1.7 0.00 0.00 0.00 83 1015.0
20260504035043 60 32 2.6 2.6 0.00 0.00 0.00 83 1014.0
20260504034542 60 31 1.7 2.6 0.00 0.00 0.00 84 1014.0
20260504034042 59 1 0.9 1.7 0.00 0.00 0.00 84 1014.0
20260504033546 59 33 0.0 0.9 0.00 0.00 0.00 84 1014.0
20260504033042 59 315 0.0 0.9 0.00 0.00 0.00 84 1015.0
20260504032542 59 237 0.0 2.6 0.00 0.00 0.00 84 1015.0
20260504032043 59 161 1.7 1.7 0.00 0.00 0.00 84 1015.0
20260504031542 59 293 1.7 2.6 0.00 0.00 0.00 84 1014.0
20260504031042 59 29 0.0 0.9 0.00 0.00 0.00 84 1015.0
20260504030542 59 353 1.7 1.7 0.00 0.00 0.00 84 1015.0
20260504030042 59 348 0.9 1.7 0.00 0.00 0.00 84 1015.0
20260504025543 59 14 0.9 1.7 0.00 0.00 0.00 84 1015.0
20260504025042 59 159 0.9 1.7 0.00 0.00 0.00 83 1015.0
20260504024542 59 121 0.9 1.7 0.00 0.00 0.00 83 1015.0
20260504024042 59 49 1.7 1.7 0.00 0.00 0.00 83 1014.0
20260504023543 59 38 0.0 0.0 0.00 0.00 0.00 82 1014.0
20260504023043 59 128 0.0 1.7 0.00 0.00 0.00 82 1014.0
20260504022542 59 229 0.9 2.6 0.00 0.00 0.00 82 1014.0
20260504022042 59 248 1.7 1.7 0.00 0.00 0.00 82 1015.0
20260504021543 59 286 0.9 1.7 0.00 0.00 0.00 83 1014.0
20260504021043 59 357 0.9 1.7 0.00 0.00 0.00 82 1015.0
20260504020543 59 347 1.7 1.7 0.00 0.00 0.00 82 1014.0
20260504020042 59 333 0.9 1.7 0.00 0.00 0.00 83 1015.0
20260504015543 59 337 2.6 3.5 0.00 0.00 0.00 83 1014.0
20260504015045 59 339 1.7 2.6 0.00 0.00 0.00 84 1015.0
20260504014542 59 322 0.0 1.7 0.00 0.00 0.00 83 1015.0
20260504014042 59 349 0.0 1.7 0.00 0.00 0.00 84 1015.0
20260504013543 59 327 2.6 2.6 0.00 0.00 0.00 84 1014.0
20260504013042 58 329 1.7 1.7 0.00 0.00 0.00 84 1015.0
20260504012543 58 265 0.0 1.7 0.00 0.00 0.00 85 1015.0
20260504012043 58 200 0.0 1.7 0.00 0.00 0.00 84 1015.0
20260504011544 58 172 0.0 1.7 0.00 0.00 0.00 85 1015.0
20260504011042 58 229 0.0 0.9 0.00 0.00 0.00 85 1015.0
20260504010542 58 359 0.0 0.9 0.00 0.00 0.00 84 1015.0
20260504010042 59 63 0.9 1.7 0.00 0.00 0.00 84 1015.0
20260504005055 59 336 0.0 0.0 0.00 0.00 0.00 83 1015.0
20260504004542 59 309 0.9 1.7 0.00 0.00 0.00 83 1015.0
20260504004042 59 194 0.0 1.7 0.00 0.00 0.00 83 1015.0
20260504003543 59 206 1.7 1.7 0.00 0.00 0.00 83 1015.0
20260504003042 59 173 0.0 0.9 0.00 0.00 0.00 82 1015.0
20260504002542 59 150 0.0 1.7 0.00 0.00 0.00 82 1015.0
20260504002043 59 121 0.0 0.9 0.00 0.00 0.00 82 1015.0
20260504001542 59 226 0.0 0.0 0.00 0.00 0.00 82 1015.0
20260504001042 59 302 0.0 0.9 0.00 0.00 0.00 82 1015.0
20260504000542 59 216 1.7 1.7 0.00 0.00 0.00 82 1015.0
20260504000044 59 183 0.0 1.7 0.00 0.00 0.01 81 1015.0
20260503235543 60 230 0.9 2.6 0.00 0.00 0.01 81 1015.0
20260503235042 60 161 1.7 1.7 0.00 0.00 0.01 80 1015.0
20260503234542 60 119 0.0 0.9 0.00 0.00 0.01 79 1015.0
20260503234042 60 121 0.0 1.7 0.00 0.00 0.01 79 1015.0
20260503233542 60 48 1.7 3.5 0.00 0.00 0.01 79 1015.0
20260503233042 60 2 0.0 2.6 0.00 0.00 0.01 79 1015.0
20260503232542 60 22 1.7 2.6 0.00 0.00 0.01 80 1015.0
20260503232042 60 3 2.6 2.6 0.00 0.00 0.01 80 1015.0
20260503231542 59 46 0.0 0.9 0.00 0.00 0.01 80 1015.0
20260503231042 60 33 0.0 1.7 0.00 0.00 0.01 80 1016.0
20260503230542 60 139 0.0 1.7 0.00 0.00 0.01 79 1016.0
20260503230043 60 178 0.9 1.7 0.00 0.00 0.01 79 1016.0
20260503225542 60 121 0.9 1.7 0.00 0.00 0.01 78 1016.0
20260503225042 60 289 0.9 1.7 0.00 0.00 0.01 78 1015.0
20260503224542 60 58 0.0 1.7 0.00 0.00 0.01 77 1016.0
20260503224042 60 19 0.9 2.6 0.00 0.00 0.01 77 1015.0
20260503223542 60 5 1.7 1.7 0.00 0.00 0.01 77 1015.0
20260503223042 60 346 1.7 3.5 0.00 0.00 0.01 77 1015.0
20260503222542 60 341 1.7 2.6 0.00 0.00 0.01 77 1016.0
20260503222043 60 8 1.7 2.6 0.00 0.00 0.01 77 1015.0
20260503221542 60 310 0.9 2.6 0.00 0.00 0.01 77 1015.0
20260503221042 60 340 0.0 1.7 0.00 0.00 0.01 77 1016.0
20260503220542 60 358 0.9 1.7 0.00 0.00 0.01 77 1015.0
20260503220042 60 32 2.6 3.5 0.00 0.00 0.01 77 1015.0
20260503215542 60 17 1.7 2.6 0.00 0.00 0.01 77 1015.0
20260503215043 60 83 0.0 1.7 0.00 0.00 0.01 77 1015.0
20260503214542 60 26 2.6 2.6 0.00 0.00 0.01 77 1015.0
20260503214042 60 359 0.9 2.6 0.00 0.00 0.01 76 1015.0
20260503213543 60 53 0.0 2.6 0.00 0.00 0.01 76 1015.0
20260503213042 60 328 2.6 4.3 0.00 0.00 0.01 77 1015.0
20260503212542 60 10 1.7 4.3 0.00 0.00 0.01 77 1015.0
20260503212042 60 358 3.5 3.5 0.00 0.00 0.01 77 1015.0
20260503211543 60 109 0.0 4.3 0.00 0.00 0.01 76 1015.0
20260503211042 60 359 1.7 2.6 0.00 0.00 0.01 77 1015.0
20260503210542 60 349 2.6 4.3 0.00 0.00 0.01 77 1015.0
20260503210042 60 316 2.6 3.5 0.00 0.00 0.01 76 1015.0
20260503205542 60 284 1.7 2.6 0.00 0.00 0.01 76 1015.0
20260503205043 60 331 1.7 4.3 0.00 0.00 0.01 76 1016.0
20260503204542 61 345 1.7 3.5 0.00 0.00 0.01 76 1015.0
20260503204043 61 285 2.6 4.3 0.00 0.00 0.01 76 1016.0
20260503203542 61 7 3.5 6.1 0.00 0.00 0.01 75 1016.0
20260503203042 61 263 0.9 4.3 0.00 0.00 0.01 75 1016.0
20260503202542 61 345 1.7 4.3 0.00 0.00 0.01 74 1016.0
20260503202042 61 352 2.6 7.8 0.00 0.00 0.01 73 1015.0
20260503201542 61 1 1.7 2.6 0.00 0.00 0.01 73 1016.0
20260503201042 61 12 0.9 2.6 0.00 0.00 0.01 72 1016.0
20260503200542 61 11 3.5 4.3 0.00 0.00 0.01 72 1016.0
20260503200045 61 335 3.5 3.5 0.00 0.00 0.01 72 1016.0
20260503195543 61 319 1.7 4.3 0.00 0.00 0.01 73 1016.0
20260503195042 61 351 2.6 4.3 0.00 0.00 0.01 73 1016.0
20260503194542 61 17 1.7 3.5 0.00 0.00 0.01 72 1016.0
20260503194043 61 10 1.7 2.6 0.00 0.00 0.01 72 1016.0
20260503193542 61 6 2.6 7.0 0.00 0.00 0.01 71 1016.0
20260503193042 61 315 2.6 6.1 0.00 0.00 0.01 70 1015.0
20260503192542 61 7 4.3 5.2 0.00 0.00 0.01 69 1016.0
20260503192042 61 18 3.5 5.2 0.00 0.00 0.01 68 1015.0
20260503191542 61 20 1.7 4.3 0.00 0.00 0.01 68 1016.0
20260503191043 61 306 2.6 3.5 0.00 0.00 0.01 68 1016.0
20260503190542 61 3 2.6 4.3 0.00 0.00 0.01 68 1016.0
20260503190042 61 20 1.7 4.3 0.00 0.00 0.01 68 1016.0
20260503185543 61 4 3.5 4.3 0.00 0.00 0.01 68 1015.0
20260503185043 61 21 2.6 4.3 0.00 0.00 0.01 68 1015.0
20260503184542 61 345 0.9 3.5 0.00 0.00 0.01 69 1015.0
20260503184042 61 358 3.5 4.3 0.00 0.00 0.01 69 1015.0
20260503183542 61 353 2.6 4.3 0.00 0.00 0.01 70 1015.0
20260503183042 61 2 4.3 4.3 0.00 0.00 0.01 71 1015.0
20260503182542 61 315 0.9 3.5 0.00 0.00 0.01 73 1015.0
20260503182042 61 84 1.7 3.5 0.00 0.00 0.01 76 1015.0
20260503181542 61 297 1.7 4.3 0.00 0.00 0.01 78 1015.0
20260503181042 61 64 3.5 4.3 0.00 0.00 0.01 79 1015.0
20260503180542 61 53 5.2 5.2 0.00 0.00 0.01 81 1016.0
20260503180042 61 57 7.0 8.7 0.00 0.00 0.01 81 1016.0
20260503175544 62 82 1.7 7.0 0.00 0.00 0.01 81 1015.0
20260503175042 62 57 3.5 7.0 0.00 0.00 0.01 82 1015.0
20260503174542 62 70 5.2 7.8 0.00 0.00 0.01 82 1015.0
20260503174042 62 23 4.3 4.3 0.00 0.00 0.01 82 1015.0
20260503173543 62 14 1.7 3.5 0.00 0.00 0.01 82 1015.0
20260503173042 62 344 6.1 7.0 0.00 0.00 0.01 81 1015.0
20260503172542 62 27 2.6 6.1 0.00 0.00 0.01 81 1015.0
20260503172042 62 317 2.6 4.3 0.00 0.00 0.01 80 1015.0
20260503171543 62 338 4.3 7.8 0.00 0.00 0.01 80 1015.0
20260503171045 62 307 0.9 3.5 0.00 0.00 0.01 80 1015.0
20260503170543 63 66 7.0 7.8 0.00 0.00 0.01 79 1015.0